Oakland, ME

3:59 PM EST on February 26, 2017 (GMT -0500)
Waterville Lafleur

Weather History for KWVL - January, 2013

Change the Weather History Date:

Tuesday, January 1, 2013

  Actual Average Record
Temperature  
Mean Temperature 18 °F -  
Max Temperature 30 °F 31 °F 55 °F (1966)
Min Temperature 6 °F 9 °F -22 °F (1972)
Degree Days  
Heating Degree Days 47    
Moisture  
Dew Point 7 °F    
Average Humidity 58    
Maximum Humidity 80    
Minimum Humidity 39    
Precipitation  
Precipitation 0.00 in - - ()
Sea Level Pressure  
Sea Level Pressure 29.66 in    
Wind  
Wind Speed 8 mph (West)    
Max Wind Speed 20 mph    
Max Gust Speed 29 mph    
Visibility 10 miles    
Events      
Averages and records for this station are not official NWS values.
T = Trace of Precipitation, MM = Missing Value Source: NWS Daily Summary

Daily Weather History Graph

Daily Weather History Graph

Search for Another Location

Airport or City:

Trip Planner

Search our weather history database for the weather conditions in past years. The results will help you decide how hot, cold, wet, or windy it might be!

Date:

Astronomy

Jan. 01, 2013 Rise Set
Actual Time 7:15 AM EST 4:09 PM EST
Civil Twilight 6:42 AM EST 4:43 PM EST
Nautical Twilight 6:05 AM EST 5:19 PM EST
Astronomical Twilight 5:29 AM EST 5:55 PM EST
Moon 8:48 PM EST (1/1) 9:15 AM EST (1/1)
Length of Visible Light 10h 00m
Length of Day
8h 54m
Waning Gibbous, 83% of the Moon is Illuminated
Jan 1
Waning Gibbous
Jan 4
Last Quarter
Jan 11
New
Jan 18
First Quarter
Jan 26
Full

Hourly Weather History & Observations

Time (EST) Temp. Windchill Dew Point Humidity Pressure Visibility Wind Dir Wind Speed Gust Speed Precip Events Conditions
12:15 AM 24.8 °F - 17.6 °F 74% 29.60 in 10.0 mi Calm Calm - N/A   Overcast
12:35 AM 24.8 °F - 19.4 °F 80% 29.59 in 10.0 mi Calm Calm - N/A   Overcast
12:55 AM 24.8 °F 20.5 °F 19.4 °F 80% 29.58 in 10.0 mi SSW 3.5 mph - N/A   Overcast
1:15 AM 24.8 °F 20.5 °F 19.4 °F 80% 29.58 in 10.0 mi SSW 3.5 mph - N/A   Overcast
1:35 AM 24.8 °F 20.5 °F 19.4 °F 80% 29.58 in 10.0 mi SSW 3.5 mph - N/A   Overcast
1:55 AM 26.6 °F 19.1 °F 21.2 °F 80% 29.57 in 10.0 mi SW 6.9 mph - N/A   Overcast
2:15 AM 28.4 °F 19.7 °F 21.2 °F 74% 29.57 in 10.0 mi SW 9.2 mph - N/A   Overcast
2:35 AM 28.4 °F 18.0 °F 21.2 °F 74% 29.57 in 10.0 mi WSW 12.7 mph - N/A   Overcast
2:55 AM 28.4 °F 19.1 °F 21.2 °F 74% 29.57 in 10.0 mi WSW 10.4 mph - N/A   Overcast
3:15 AM 28.4 °F 18.5 °F 21.2 °F 74% 29.56 in 10.0 mi SW 11.5 mph - N/A   Mostly Cloudy
3:35 AM 28.4 °F 18.5 °F 21.2 °F 74% 29.56 in 10.0 mi SW 11.5 mph - N/A   Mostly Cloudy
4:15 AM 28.4 °F 19.1 °F 21.2 °F 74% 29.54 in 10.0 mi SW 10.4 mph - N/A   Mostly Cloudy
4:35 AM 28.4 °F 19.7 °F 21.2 °F 74% 29.55 in 10.0 mi SW 9.2 mph - N/A   Mostly Cloudy
4:55 AM 28.4 °F 20.4 °F 21.2 °F 74% 29.55 in 9.0 mi SW 8.1 mph - N/A   Mostly Cloudy
5:15 AM 28.4 °F 22.2 °F 23.0 °F 80% 29.56 in 7.0 mi WSW 5.8 mph - N/A   Overcast
5:35 AM 28.4 °F - 21.2 °F 74% 29.56 in 10.0 mi Calm Calm - N/A   Overcast
5:55 AM 26.6 °F - 21.2 °F 80% 29.57 in 10.0 mi Calm Calm - N/A   Overcast
6:15 AM 28.4 °F 18.5 °F 21.2 °F 74% 29.57 in 10.0 mi West 11.5 mph 17.3 mph N/A   Overcast
6:35 AM 30.2 °F 20.2 °F 19.4 °F 64% 29.56 in 10.0 mi WSW 12.7 mph 17.3 mph N/A   Mostly Cloudy
6:55 AM 30.2 °F 22.6 °F 19.4 °F 64% 29.57 in 10.0 mi West 8.1 mph - N/A   Partly Cloudy
7:15 AM 30.2 °F 26.7 °F 15.8 °F 55% 29.59 in 10.0 mi WNW 3.5 mph - N/A   Mostly Cloudy
7:55 AM 28.4 °F 20.4 °F 19.4 °F 69% 29.61 in 10.0 mi NW 8.1 mph - N/A   Overcast
8:15 AM 28.4 °F 22.2 °F 19.4 °F 69% 29.61 in 10.0 mi WNW 5.8 mph - N/A   Mostly Cloudy
8:35 AM 28.4 °F 20.4 °F 17.6 °F 64% 29.61 in 10.0 mi West 8.1 mph - N/A   Mostly Cloudy
8:55 AM 28.4 °F 16.6 °F 10.4 °F 47% 29.63 in 10.0 mi West 16.1 mph 27.6 mph N/A   Scattered Clouds
9:15 AM 28.4 °F 17.5 °F 10.4 °F 47% 29.64 in 10.0 mi West 13.8 mph 20.7 mph N/A   Mostly Cloudy
9:35 AM 24.8 °F 12.9 °F 10.4 °F 54% 29.64 in 10.0 mi NW 13.8 mph 21.9 mph N/A   Scattered Clouds
10:15 AM 24.8 °F 14.0 °F 8.6 °F 50% 29.66 in 10.0 mi NW 11.5 mph 21.9 mph N/A   Clear
10:35 AM 24.8 °F 11.5 °F 6.8 °F 46% 29.66 in 10.0 mi NW 17.3 mph 21.9 mph N/A   Clear
10:55 AM 24.8 °F 13.4 °F 5.0 °F 43% 29.67 in 10.0 mi NW 12.7 mph 24.2 mph N/A   Clear
11:15 AM 24.8 °F 12.9 °F 5.0 °F 43% 29.66 in 10.0 mi NW 13.8 mph 23.0 mph N/A   Clear
11:35 AM 24.8 °F 10.7 °F 3.2 °F 40% 29.68 in 10.0 mi WNW 19.6 mph - N/A   Clear
11:55 AM 23.0 °F 8.7 °F 1.4 °F 39% 29.67 in 10.0 mi NW 18.4 mph 23.0 mph N/A   Clear
12:15 PM 23.0 °F 10.1 °F 1.4 °F 39% 29.66 in 10.0 mi WNW 15.0 mph 21.9 mph N/A   Clear
12:35 PM 21.2 °F 8.3 °F 1.4 °F 42% 29.67 in 10.0 mi West 13.8 mph 20.7 mph N/A   Clear
12:55 PM 21.2 °F 8.9 °F 1.4 °F 42% 29.67 in 10.0 mi NW 12.7 mph 19.6 mph N/A   Clear
1:15 PM 21.2 °F 9.5 °F 1.4 °F 42% 29.67 in 10.0 mi NW 11.5 mph 20.7 mph N/A   Clear
1:35 PM 21.2 °F 10.1 °F 1.4 °F 42% 29.67 in 10.0 mi WNW 10.4 mph 21.9 mph N/A   Clear
1:55 PM 21.2 °F 7.3 °F 1.4 °F 42% 29.66 in 10.0 mi NW 16.1 mph 23.0 mph N/A   Clear
2:15 PM 21.2 °F 6.8 °F 1.4 °F 42% 29.65 in 10.0 mi WNW 17.3 mph 28.8 mph N/A   Clear
2:35 PM 19.4 °F 4.1 °F 1.4 °F 46% 29.66 in 10.0 mi WNW 18.4 mph 28.8 mph N/A   Clear
2:55 PM 19.4 °F 5.0 °F 1.4 °F 46% 29.67 in 10.0 mi WNW 16.1 mph 21.9 mph N/A   Clear
3:15 PM 19.4 °F 5.5 °F 1.4 °F 46% 29.68 in 10.0 mi WNW 15.0 mph 20.7 mph N/A   Clear
3:35 PM 17.6 °F 2.7 °F -0.4 °F 45% 29.69 in 10.0 mi WNW 16.1 mph 24.2 mph N/A   Clear
4:15 PM 17.6 °F 6.4 °F -0.4 °F 45% 29.69 in 10.0 mi NW 9.2 mph - N/A   Clear
4:35 PM 15.8 °F 1.4 °F -0.4 °F 49% 29.70 in 10.0 mi WNW 13.8 mph - N/A   Clear
4:55 PM 15.8 °F 3.4 °F -0.4 °F 49% 29.71 in 10.0 mi WNW 10.4 mph 18.4 mph N/A   Clear
5:15 PM 15.8 °F 4.2 °F -0.4 °F 49% 29.71 in 10.0 mi NW 9.2 mph - N/A   Clear
5:35 PM 14.0 °F 0.5 °F -0.4 °F 53% 29.72 in 10.0 mi WNW 11.5 mph 18.4 mph N/A   Clear
5:55 PM 14.0 °F -0.8 °F -2.2 °F 49% 29.73 in 10.0 mi WNW 13.8 mph 17.3 mph N/A   Clear
6:15 PM 12.2 °F -2.5 °F -2.2 °F 53% 29.74 in 10.0 mi NW 12.7 mph 18.4 mph N/A   Clear
6:55 PM 12.2 °F -1.0 °F -2.2 °F 53% 29.76 in 10.0 mi WNW 10.4 mph 16.1 mph N/A   Clear
7:15 PM 10.4 °F -3.3 °F -2.2 °F 57% 29.77 in 10.0 mi WNW 10.4 mph 18.4 mph N/A   Clear
7:35 PM 10.4 °F -4.1 °F -2.2 °F 57% 29.77 in 10.0 mi West 11.5 mph 19.6 mph N/A   Clear
7:55 PM 10.4 °F -0.4 °F -2.2 °F 57% 29.78 in 10.0 mi WNW 6.9 mph - N/A   Clear
8:15 PM 10.4 °F -2.4 °F -2.2 °F 57% 29.78 in 10.0 mi West 9.2 mph - N/A   Clear
8:35 PM 10.4 °F -1.5 °F -4.0 °F 52% 29.78 in 10.0 mi West 8.1 mph - N/A   Clear
8:55 PM 10.4 °F -2.4 °F -4.0 °F 52% 29.78 in 10.0 mi West 9.2 mph - N/A   Clear
9:15 PM 10.4 °F 0.8 °F -4.0 °F 52% 29.77 in 10.0 mi West 5.8 mph - N/A   Clear
9:35 PM 10.4 °F 0.8 °F -2.2 °F 57% 29.77 in 10.0 mi WSW 5.8 mph - N/A   Clear
9:55 PM 8.6 °F 0.1 °F -4.0 °F 57% 29.77 in 10.0 mi West 4.6 mph - N/A   Clear
10:15 PM 8.6 °F -1.3 °F -5.8 °F 52% 29.78 in 10.0 mi West 5.8 mph - N/A   Clear
10:35 PM 6.8 °F - -5.8 °F 56% 29.78 in 10.0 mi Calm Calm - N/A   Clear
10:55 PM 6.8 °F -0.1 °F -2.2 °F 67% 29.78 in 10.0 mi SSE 3.5 mph - N/A   Clear
11:15 PM 6.8 °F - -2.2 °F 67% 29.79 in 10.0 mi Calm Calm - N/A   Clear
11:35 PM 6.8 °F - -2.2 °F 67% 29.79 in 10.0 mi Calm Calm - N/A   Clear
11:55 PM 6.8 °F - -2.2 °F 67% 29.79 in 10.0 mi Calm Calm - N/A   Clear